Meteo Giornale » Osservazioni meteo Italia » Cagliari-Elmas

ore: 04:50 - Osservazioni Meteo Cagliari-Elmas
Lat. 39° 15' N Lon. 9° 4' E Alt. 4 metri s.l.m.

sereno Europe/Rome

26 °C

Sereno

Temp. 24 Ore

23 °C

30 °C

Sud/Sud-Est

14.8 Km/h

Dew point 20 °C

Umidità 69 %

Visibilità  10 Km

Il sole sorge alle ore 06:19

Il sole tramonta alle ore 20:41

Data e Ora Cielo e Fenomeni T °C DP °C Um. % Pres. hPa Vis. km Vento km/h
Oggi h: 04:50 sereno Sereno 26 20 69 1013 10 S/SE 14.8
Oggi h: 04:20 sereno Sereno 26 20 69 1013 10 S/SE 14.8
Oggi h: 03:50 sereno Sereno 26 20 69 1013 10 SE 16.7
Oggi h: 03:20 sereno Sereno 26 21 73 1013 10 S/SE 14.8
Oggi h: 02:50 sereno Sereno 26 21 73 1013 10 SE 14.8
Oggi h: 02:20 sereno Sereno 26 21 73 1014 10 S/SE 16.7
Oggi h: 01:50 sereno Sereno 26 22 78 1014 10 SE 16.7
Oggi h: 01:20 sereno Sereno 26 22 78 1014 10 S/SE 13
Oggi h: 00:50 sereno Sereno 26 22 78 1014 10 S/SE 18.5
Oggi h: 00:20 sereno Sereno 26 23 83 1014 10 S/SE 16.7
Ieri h: 23:50 sereno Sereno 26 23 83 1014 10 S/SE 14.8
Ieri h: 23:20 sereno Sereno 26 23 83 1014 10 S/SE 13
Ieri h: 22:50 sereno Sereno 26 23 83 1014 10 S/SE 14.8
Ieri h: 22:20 sereno Sereno 26 23 83 1014 10 S/SE 16.7
Ieri h: 21:50 sereno Sereno 26 24 88 1014 10 S/SE 14.8
Ieri h: 21:20 poco_nuvoloso Poco Nuvoloso 26 24 88 1014 10 S 14.8
Ieri h: 20:50 poco_nuvoloso Poco Nuvoloso 26 25 94 1014 10 S 16.7
Ieri h: 20:20 nuvoloso Nuvoloso 26 24 88 1014 10 S/SE 16.7
Ieri h: 19:50 poco_nuvoloso Poco Nuvoloso 27 25 88 1014 10 S/SE 16.7
Ieri h: 19:20 molto_nuvoloso Molto Nuvoloso 27 24 83 1014 10 S/SE 18.5
Ieri h: 18:50 nuvoloso Nuvoloso 27 24 83 1014 10 S/SE 20.3
Ieri h: 18:20 poco_nuvoloso Poco Nuvoloso 28 24 78 1014 10 S 16.7
Ieri h: 17:50 sereno Sereno 29 23 70 1014 10 S 18.5
Ieri h: 17:20 sereno Sereno 29 24 74 1014 10 S 16.7
Ieri h: 16:50 sereno Sereno 29 24 74 1014 10 S 20.3
Ieri h: 16:20 sereno Sereno 29 24 74 1014 10 S/SE 18.5
Ieri h: 15:50 poco_nuvoloso Poco Nuvoloso 30 24 70 1014 10 S 18.5
Ieri h: 15:20 poco_nuvoloso Poco Nuvoloso 29 24 74 1015 10 S/SE 18.5
Ieri h: 14:50 coperto Coperto 30 25 74 1015 10 S/SE 20.3
Ieri h: 14:20 nuvoloso Nuvoloso 28 24 78 1015 10 S 16.7
Ieri h: 13:50 nuvoloso Nuvoloso 28 25 83 1015 10 S/SO 24
Ieri h: 13:20 sereno Sereno 30 23 66 1015 10 S/SE 7.4
Ieri h: 12:50 sereno Sereno 30 24 70 1015 10 S/SE 13
Ieri h: 12:20 poco_nuvoloso Poco Nuvoloso 30 24 70 1016 10 S/SE 14.8
Ieri h: 11:50 nuvoloso Nuvoloso 29 24 74 1016 10 S/SE 11.1
Ieri h: 11:20 nuvoloso Nuvoloso 28 24 78 1015 10 O/SO 9.3
Ieri h: 10:50 nuvoloso Nuvoloso 27 24 83 1015 10 S/SO 14.8
Ieri h: 10:20 poco_nuvoloso Poco Nuvoloso 28 24 78 1015 10 S 9.3
Ieri h: 09:50 nuvoloso Nuvoloso 28 24 78 1015 10 S/SE 13
Ieri h: 09:20 nuvoloso Nuvoloso 27 24 83 1015 10 S 11.1
Ieri h: 08:50 sereno Sereno 27 24 83 1015 10 S/SO 16.7
Ieri h: 08:20 sereno Sereno 26 24 88 1014 10 S/SO 18.5
Ieri h: 07:50 sereno Sereno 26 23 83 1014 10 S/SO 18.5
Ieri h: 07:20 sereno Sereno 25 24 94 1014 10 S 11.1
Ieri h: 06:50 sereno Sereno 25 23 88 1014 10 S 7.4
Ieri h: 06:20 sereno Sereno 23 22 94 1014 10 N 3.7
Ieri h: 05:50 poco_nuvoloso Poco Nuvoloso 24 23 94 1014 10 N/NO 7.4